Augusta, GA

12:46 PM EST on January 21, 2018 (GMT -0500)
Daniel

Weather History for KDNL - April, 2013

Change the Weather History Date:

Monday, April 22, 2013

  Actual Average Record
Temperature  
Mean Temperature 60 °F -  
Max Temperature 69 °F 74 °F 88 °F (2017)
Min Temperature 51 °F 53 °F 50 °F (2009)
Degree Days  
Heating Degree Days 5    
Month to date heating degree days 79  
Growing Degree Days 10 (Base 50)    
Moisture  
Dew Point 35 °F    
Average Humidity 42    
Maximum Humidity 66    
Minimum Humidity 26    
Precipitation  
Precipitation 0.00 in - - ()
Month to date precipitation 2.14  
Year to date precipitation 14.13  
Sea Level Pressure  
Sea Level Pressure 30.26 in    
Wind  
Wind Speed 11 mph (NE)    
Max Wind Speed 21 mph    
Max Gust Speed 28 mph    
Visibility 10 miles    
Events      
Averages and records for this station are not official NWS values.
T = Trace of Precipitation, MM = Missing Value Source: NWS Daily Summary

Daily Weather History Graph

Daily Weather History Graph

Search for Another Location

Airport or City:

Trip Planner

Search our weather history database for the weather conditions in past years. The results will help you decide how hot, cold, wet, or windy it might be!

Date:

Astronomy

Apr. 22, 2013 Rise Set
Actual Time 6:49 AM EDT 8:04 PM EDT
Civil Twilight 6:23 AM EDT 8:30 PM EDT
Nautical Twilight 5:52 AM EDT 9:01 PM EDT
Astronomical Twilight 5:20 AM EDT 9:33 PM EDT
Moon 5:00 PM EDT (4/22) 4:33 AM EDT (4/22)
Length of Visible Light 14h 07m
Length of Day
13h 15m
Waxing Gibbous, 87% of the Moon is Illuminated
Apr 22
Waxing Gibbous
Apr 25
Full
May 2
Last Quarter
May 9
New
May 18
First Quarter

Hourly Weather History & Observations

Time (EDT) Temp. Dew Point Humidity Pressure Visibility Wind Dir Wind Speed Gust Speed Precip Events Conditions
12:53 AM 55.9 °F 42.1 °F 60% 30.30 in 10.0 mi NE 8.1 mph - N/A   Clear
1:53 AM 54.0 °F 42.1 °F 64% 30.30 in 10.0 mi NE 9.2 mph - N/A   Clear
2:53 AM 54.0 °F 42.1 °F 64% 30.28 in 10.0 mi NE 12.7 mph - N/A   Overcast
3:53 AM 54.0 °F 39.0 °F 57% 30.27 in 10.0 mi NE 11.5 mph 21.9 mph N/A   Overcast
4:53 AM 53.1 °F 37.0 °F 55% 30.28 in 10.0 mi NE 15.0 mph - N/A   Overcast
5:53 AM 52.0 °F 33.1 °F 49% 30.28 in 10.0 mi ENE 16.1 mph 23.0 mph N/A   Mostly Cloudy
6:53 AM 52.0 °F 32.0 °F 47% 30.30 in 10.0 mi NE 10.4 mph - N/A   Overcast
7:53 AM 51.1 °F 33.1 °F 50% 30.32 in 10.0 mi NE 13.8 mph - N/A   Overcast
8:53 AM 52.0 °F 34.0 °F 50% 30.32 in 10.0 mi NE 11.5 mph 18.4 mph N/A   Overcast
9:53 AM 55.0 °F 34.0 °F 45% 30.32 in 10.0 mi NNE 15.0 mph 19.6 mph N/A   Scattered Clouds
10:53 AM 57.9 °F 32.0 °F 37% 30.32 in 10.0 mi NNE 15.0 mph 23.0 mph N/A   Clear
11:53 AM 61.0 °F 32.0 °F 34% 30.30 in 10.0 mi NE 12.7 mph 20.7 mph N/A   Clear
12:53 PM 64.0 °F 32.0 °F 30% 30.27 in 10.0 mi North 12.7 mph 18.4 mph N/A   Clear
1:53 PM 66.0 °F 33.1 °F 29% 30.26 in 10.0 mi NNE 9.2 mph 20.7 mph N/A   Clear
2:53 PM 66.9 °F 34.0 °F 30% 30.24 in 10.0 mi NNE 12.7 mph - N/A   Clear
3:53 PM 69.1 °F 34.0 °F 27% 30.21 in 10.0 mi NE 10.4 mph - N/A   Clear
4:53 PM 69.1 °F 34.0 °F 27% 30.19 in 10.0 mi NNE 8.1 mph - N/A   Mostly Cloudy
5:53 PM 68.0 °F 34.0 °F 28% 30.18 in 10.0 mi NNE 10.4 mph - N/A   Clear
6:53 PM 66.9 °F 34.0 °F 30% 30.17 in 10.0 mi NNE 6.9 mph - N/A   Clear
7:53 PM 64.0 °F 35.1 °F 34% 30.18 in 10.0 mi NNE 5.8 mph - N/A   Clear
8:53 PM 61.0 °F 36.0 °F 39% 30.20 in 10.0 mi NNE 4.6 mph - N/A   Clear
9:53 PM 60.1 °F 34.0 °F 38% 30.21 in 10.0 mi NE 8.1 mph - N/A   Clear
10:53 PM 57.9 °F 32.0 °F 37% 30.22 in 10.0 mi NE 8.1 mph - N/A   Clear
11:53 PM 55.9 °F 32.0 °F 40% 30.22 in 10.0 mi NNE 8.1 mph - N/A   Clear